Regional Weather Roundup
Issued by NWS

Home | Current Version | Previous Version | Text Only | Print | Product List | Glossary Off
Versions: 1 2 3 4 5 6 7 8 9 10 11 12 13 14 15 16 17 18 19 20 21 22 23 24 25 26 27 28 29 30 31 32 33 34 35 36 37 38 39 40 41 42 43 44 45 46 47 48 49 50

000
ASUS43 KFSD 071902
RWRSD

WEATHER ROUNDUP FOR SOUTH DAKOTA
NATIONAL WEATHER SERVICE SIOUX FALLS SD
100 PM CST WED DEC 07 2016

NOTE: "FAIR" INDICATES FEW OR NO CLOUDS BELOW 12,000 FEET WITH NO
SIGNIFICANT WEATHER AND/OR OBSTRUCTIONS TO VISIBILITY.


SDZ001>005-009-010-012>017-072000-
NORTHWEST AND NORTH CENTRAL SOUTH DAKOTA

CITY           SKY/WX    TMP DP  RH WIND       PRES   REMARKS
BUFFALO          N/A      7  -3  64 NW32      30.25S WCI -17
FAITH            N/A      7   0  73 NW29G36   30.31S WCI -16
MOBRIDGE       MOSUNNY   10  -1  61 NW29G40   30.24S WCI -12
$$

SDZ012>016-024>037-041>051-057-063-072>074-072000-
SOUTHWEST AND SOUTH CENTRAL SOUTH DAKOTA

CITY           SKY/WX    TMP DP  RH WIND       PRES   REMARKS
RAPID CTY ARPT CLOUDY    14  -4  44 NW20G31   30.33S WCI  -3
PIERRE         CLOUDY    12   4  70 NW31      30.33S WCI -10
CUSTER         MOSUNNY   11  -5  48 SW6       30.09F WCI   1
ELLSWORTH AFB  CLOUDY    13  -4  46 NW24G31   30.30F WCI  -7
PHILIP         MOSUNNY   13   1  59 NW23G30   30.38S WCI  -6
PINE RIDGE     MOSUNNY    9   0  67 NW5       30.33S WCI   1
SPEARFISH      PTSUNNY    5  -4  66 W15G23    30.30S WCI -13
WINNER         MOCLDY    14   1  56 NW24G35   30.34S WCI  -5
$$

SDZ004>011-016>023-039-040-072000-
NORTHEAST SOUTH DAKOTA

CITY           SKY/WX    TMP DP  RH WIND       PRES   REMARKS
ABERDEEN       LGT SNOW  13   3  64 W24G32    30.22R WCI  -7
WATERTOWN      CLOUDY    12   5  73 W25G35    30.13S HAZE    WCI  -8
SISSETON         N/A     16   6  65 NW36G41   30.10F WCI  -6
$$

SDZ017-020-022-023-036>040-048>070-072000-
SOUTHEAST SOUTH DAKOTA

CITY           SKY/WX    TMP DP  RH WIND       PRES   REMARKS
SIOUX FALLS    PTSUNNY   18   6  59 W25G36    30.21F WCI   0
HURON          SUNNY     17   4  56 NW26G39   30.26F WCI  -2
MITCHELL       SUNNY     19   5  54 W25G32    30.30S WCI   1
YANKTON        MOSUNNY  N/A N/A N/A W23G31    30.28S
$$

ABBREVIATIONS USED IN REMARKS
   TC - TEMPERATURE IN CELSIUS
  WCI - WIND CHILL INDEX
   HX - HEAT INDEX
  VSB - VISIBILITY





USA.gov is the U.S. government's official web portal to all federal, state and local government web resources and services.